SCP
1 1 1 1 1 2 2 2 2 2 2 2 2 2 2 1 1 1 1 2 2 1 1 1 1 1 1 1 1 1 1 1 0 0 0 0 0 0 0 0 0 0 0
1 1 1 1 1 2 2 2 2 2 2 2 2 2 2 2 1 1 1 2 1 1 1 1 1 1 1 1 1 0 0 0 0 0 0 0 0 0 0 0 0 0 0
1 1 1 1 1 2 2 2 2 2 2 2 2 2 2 2 2 1 1 1 1 1 1 1 1 1 1 1 0 0 0 0 0 0 0 0 0 0 0 0 0 0 0
1 1 1 1 1 2 2 2 2 3 3 3 3 2 2 2 2 2 2 1 1 1 1 1 1 1 0 0 0 0 0 0 0 0 0 0 0 0 0 0 0 0 0
1 1 1 1 1 2 2 2 3 3 3 3 3 3 2 2 2 2 2 2 1 1 1 1 1 1 0 0 0 1 1 0 0 0 0 0 0 0 0 0 0 0 0
1 1 1 1 2 2 2 2 3 3 3 3 3 3 3 2 2 2 2 1 1 1 1 0 1 1 1 1 1 1 1 0 0 0 0 0 0 0 0 0 0 0 0
1 1 1 2 2 2 2 3 3 3 3 3 3 3 3 2 2 2 1 1 1 1 1 1 1 1 1 1 1 1 1 1 0 0 0 0 0 0 0 0 0 0 0
1 1 1 2 2 2 2 3 3 3 2 2 2 3 2 2 2 2 1 1 1 1 1 1 1 1 1 1 1 1 1 1 1 0 0 0 0 0 0 0 0 0 0
1 1 1 2 2 2 3 3 3 2 2 2 2 2 2 2 2 1 1 1 1 1 1 1 1 1 1 1 1 1 1 1 1 0 0 0 0 0 0 0 0 0 0
1 1 1 2 2 2 3 3 2 2 2 2 2 2 2 2 1 1 1 1 1 1 1 1 1 1 1 1 1 1 0 1 1 0 0 0 0 0 0 0 0 0 0
1 1 1 2 2 2 2 2 2 1 1 1 1 1 1 1 1 1 1 1 0 0 0 0 0 0 0 0 0 0 0 0 0 0 0 0 0 0 0 0 0 0 0
1 1 1 1 1 1 1 1 1 1 1 1 1 1 1 1 1 0 0 0 0 0 0 0 0 0 0 0 0 0 0 0 0 0 0 0 0 0 0 0 0 0 0
1 1 1 1 1 1 1 1 1 1 1 1 1 1 1 1 1 0 0 0 0 0 0 0 0 0 0 0 0 0 0 0 0 0 0 0 0 0 0 0 0 0 0
1 1 1 1 1 1 1 1 1 1 1 1 1 1 1 1 0 0 0 0 0 0 0 0 0 0 0 0 0 0 0 0 0 0 0 0 0 0 0 0 0 0 0
0 1 1 1 1 1 1 1 1 1 1 1 1 1 0 0 0 0 0 0 0 0 0 0 0 0 0 0 0 0 0 0 0 0 0 0 0 0 0 0 0 0 0
0 0 1 1 1 1 1 1 1 1 1 1 0 0 0 0 0 0 0 0 0 0 0 0 0 0 0 0 0 0 0 0 0 0 0 0 0 0 0 0 0 0 0
1 1 1 1 1 1 1 1 1 1 0 0 0 0 0 0 0 0 0 0 0 0 0 0 0 0 0 0 0 0 0 0 0 0 0 0 0 0 0 0 0 0 0
1 1 1 1 1 1 1 1 1 0 0 0 0 0 0 0 0 0 0 0 0 0 0 0 0 0 0 0 0 0 0 0 0 0 0 0 0 0 0 0 0 0 0
1 1 1 1 1 1 1 1 1 0 0 0 0 0 0 0 0 0 0 0 0 0 0 0 0 0 0 0 0 0 0 0 0 0 0 0 0 0 0 0 0 0 0
1 1 1 1 1 1 1 1 1 0 0 0 0 0 0 0 0 0 0 0 0 0 0 0 0 0 0 0 0 0 0 0 0 0 0 0 0 0 0 0 0 0 0
1 1 1 1 1 1 1 1 1 0 0 0 0 0 0 0 0 0 0 0 0 0 0 0 0 0 0 0 0 0 0 0 0 0 0 0 0 0 0 0 0 0 0
1 1 1 1 1 1 1 1 1 0 0 0 0 0 0 0 0 0 0 0 0 0 0 0 0 0 0 0 0 0 0 0 0 0 0 0 0 0 0 0 0 0 0
0 0 1 1 1 1 1 1 1 0 0 0 0 0 0 0 0 0 0 0 0 0 0 0 0 0 0 0 0 0 0 0 0 0 0 0 0 0 0 0 0 0 0
0 0 1 1 1 1 1 1 0 0 0 0 0 0 0 0 0 0 0 0 0 0 0 0 0 0 0 0 0 0 0 0 0 0 0 0 0 0 0 0 0 0 0
0 0 0 0 0 0 0 0 0 0 0 0 0 0 0 0 0 0 0 0 0 0 0 0 0 0 0 0 0 0 0 0 0 0 0 0 0 0 0 0 0 0 0
0 0 0 0 0 0 0 0 0 0 0 0 0 0 0 0 0 0 0 0 0 0 0 0 0 0 0 0 0 0 0 0 0 0 0 0 0 0 0 0 0 0 0
Wind_Speed
9 8 8 9 9 8 7 5 5 4 4 3 3 3 2 2 2 2 3 3 3 2 2 2 1 2 1 2 2 2 2 2 2 2 3 3 4 4 3 3 3 3 3
7 8 9 8 9 8 7 6 5 5 5 4 3 3 3 2 2 2 3 4 3 3 3 2 2 2 2 2 2 2 2 3 2 1 2 2 2 2 4 3 4 3 3
8 9 8 8 8 8 8 6 6 5 5 4 3 2 2 2 2 2 2 3 3 3 2 2 2 2 2 2 3 3 3 2 2 2 2 1 1 1 2 4 3 3 2
8 8 8 8 7 7 7 6 6 5 4 4 4 4 4 3 3 2 2 3 3 3 3 3 3 2 2 2 3 3 2 2 2 2 2 2 1 1 2 2 3 3 3
8 8 8 7 6 6 6 6 6 5 4 4 4 4 3 2 1 1 1 2 2 2 3 3 2 2 2 3 3 2 3 2 3 2 2 3 2 3 2 2 2 2 3
6 7 7 7 6 5 5 5 5 5 4 4 4 3 3 2 2 2 2 1 1 2 3 3 2 3 3 3 3 2 3 3 3 3 2 2 2 2 2 3 3 3 3
5 6 6 6 6 6 5 5 5 5 4 4 4 3 3 2 3 3 2 2 2 2 3 3 3 3 3 3 3 3 4 4 4 4 3 3 3 2 2 2 3 3 3
4 5 5 5 5 5 6 5 6 5 4 4 4 3 3 3 2 2 2 2 2 2 2 3 3 4 4 5 4 3 5 4 4 6 4 3 4 3 3 2 2 3 3
4 4 5 5 4 5 5 5 5 4 4 4 4 3 3 2 2 2 2 2 2 3 3 3 3 4 4 4 4 4 5 4 5 5 5 4 4 3 3 2 2 3 4
3 4 4 4 4 4 5 5 5 4 4 3 3 2 2 2 2 2 2 2 2 2 2 3 3 4 4 5 4 4 5 5 5 4 5 5 4 3 3 3 3 3 3
3 3 5 5 5 4 5 5 4 4 3 3 2 2 2 1 1 1 1 1 2 2 3 4 3 4 4 5 5 6 6 6 5 5 5 5 5 3 3 3 3 4 3
2 4 4 5 5 4 4 4 3 3 3 3 2 2 1 1 1 1 1 2 2 3 3 3 4 5 5 4 5 6 6 6 6 6 6 5 5 5 3 3 4 4 4
3 3 4 4 4 4 3 3 3 3 2 2 2 2 1 1 1 1 1 2 2 3 3 3 4 4 5 5 5 6 6 6 6 5 6 5 5 5 4 4 4 4 4
3 3 4 4 4 3 3 2 2 2 2 2 2 2 1 1 1 1 1 2 2 3 3 4 4 5 5 5 4 4 5 5 5 5 5 5 5 5 5 5 4 4 4
4 4 4 4 4 3 3 2 2 2 2 2 1 2 2 2 1 1 1 2 2 3 3 4 4 4 4 4 3 3 4 3 3 4 4 5 5 6 5 5 3 4 3
4 5 4 5 4 3 3 2 2 2 2 1 1 1 1 1 1 1 2 2 2 3 3 3 4 4 4 1 2 2 3 3 4 4 4 5 6 6 7 7 6 5 5
5 5 4 4 4 3 2 2 1 2 2 1 1 1 1 1 1 2 2 2 2 3 3 4 4 3 3 2 3 3 3 4 4 4 4 5 5 4 4 5 6 6 7
5 4 4 5 4 3 2 1 1 2 2 1 1 1 1 1 1 2 2 2 2 3 3 4 4 3 3 3 4 4 4 4 4 4 4 4 4 4 3 4 4 5 5
5 4 4 4 4 3 2 1 1 1 1 1 1 1 1 1 2 2 2 2 2 3 4 4 4 3 2 3 4 4 4 4 5 5 5 4 4 4 4 3 4 5 5
5 4 4 4 4 3 2 1 1 1 2 2 1 1 1 1 2 3 3 3 3 4 5 5 4 3 3 4 5 5 3 3 3 3 3 4 4 4 5 4 4 5 5
4 3 3 3 3 2 2 1 1 1 1 2 2 2 2 2 3 2 3 3 4 4 4 5 4 3 3 4 5 5 3 3 3 3 3 2 4 4 6 5 5 7 6
3 2 2 3 3 2 2 1 1 1 1 2 2 2 2 4 3 3 3 4 4 5 5 4 3 2 2 2 3 5 6 4 3 3 2 2 4 5 7 6 7 9 7
2 2 2 2 2 2 2 1 1 1 1 2 2 2 3 3 4 4 4 4 3 4 4 2 2 2 1 1 3 5 6 6 4 3 4 4 5 6 7 9 10 8 5
2 2 2 1 1 2 2 2 2 1 1 2 2 3 3 4 4 3 3 3 3 3 2 2 3 3 1 1 1 1 3 4 4 4 5 7 8 8 8 7 6 6 5
1 1 1 2 2 2 2 1 1 1 2 3 3 4 4 4 3 3 3 3 2 2 2 2 2 3 2 2 2 3 3 3 3 3 4 4 4 4 4 4 4 4 5
1 1 2 2 1 1 1 1 1 1 2 3 4 4 4 3 3 3 2 2 3 3 4 3 3 3 4 5 5 6 6 7 5 3 5 5 5 4 4 4 4 4 4
Wind_Direction
173 162 162 161 154 153 157 168 177 166 169 176 186 195 205 207 208 193 171 179 199 204 220 251 199 221 201 189 198 206 234 238 231 262 270 256 235 225 228 220 227 215 210
171 161 167 167 163 161 167 177 176 172 183 185 190 198 196 206 202 200 177 176 187 205 218 215 223 221 198 200 202 206 236 242 215 231 264 262 249 243 234 217 218 215 196
182 172 170 172 172 171 175 177 175 177 186 186 185 193 180 201 206 190 184 188 194 199 222 207 238 238 222 204 203 212 224 240 232 216 221 243 257 279 243 227 219 199 199
186 175 172 175 181 176 172 167 166 173 179 183 192 197 203 206 205 190 189 191 194 204 212 203 216 232 241 218 220 206 228 238 250 238 234 239 226 243 266 256 226 206 216
184 173 173 179 180 174 168 161 159 168 177 188 197 198 212 208 199 181 200 194 201 206 210 198 203 217 236 225 228 218 215 222 238 250 239 246 245 231 244 262 259 245 226
178 169 171 167 170 169 166 156 156 166 175 185 194 199 203 199 195 200 202 217 208 204 204 199 198 215 229 227 228 223 224 230 238 250 255 238 237 237 240 256 256 248 244
170 167 168 164 162 163 161 156 160 171 177 185 190 195 196 196 206 211 201 217 224 219 208 206 201 217 226 223 218 217 232 227 231 241 253 256 252 246 244 252 265 266 260
162 162 162 156 162 165 162 160 162 169 175 182 185 188 192 203 212 214 218 226 232 223 199 204 207 219 226 230 219 225 230 222 222 234 237 251 256 250 248 247 260 274 269
154 156 149 154 166 166 156 153 154 161 174 185 183 185 188 205 214 209 215 227 226 229 208 210 215 227 230 233 224 234 236 230 226 233 234 239 250 249 246 245 239 251 271
150 153 148 151 148 143 138 138 146 159 172 177 181 184 181 188 194 217 228 242 244 248 240 234 232 236 234 233 229 236 238 232 228 229 232 233 243 248 244 244 245 240 253
168 156 148 144 140 135 134 131 142 155 159 158 161 165 171 178 190 233 242 256 260 249 247 248 245 245 240 232 230 234 236 231 233 235 234 232 240 246 245 239 242 246 246
154 130 133 135 138 143 136 131 142 146 151 147 141 144 152 159 215 250 255 259 263 258 258 254 252 250 246 237 236 240 240 236 233 233 234 230 233 232 240 243 243 246 243
128 133 128 129 129 124 118 130 138 134 142 138 139 141 160 182 230 256 257 265 271 270 267 264 260 255 254 248 243 243 239 235 235 233 233 230 229 229 228 238 247 252 256
127 132 114 110 118 121 121 126 127 124 128 133 145 151 173 208 242 257 264 264 268 267 267 267 263 260 261 260 256 251 246 239 240 240 235 234 228 226 226 234 238 250 260
128 120 124 123 121 122 122 111 111 112 123 140 158 173 193 214 218 250 281 278 287 285 280 275 266 265 263 268 272 264 260 252 253 252 242 241 233 220 218 234 233 247 255
137 136 139 131 127 126 122 119 121 132 145 161 188 200 210 219 219 247 269 273 285 287 286 284 279 276 282 291 292 278 275 260 255 257 254 250 232 216 216 225 229 230 240
133 131 124 120 116 121 125 140 164 168 173 185 217 234 229 241 244 268 269 271 289 299 299 291 281 269 269 243 241 248 256 265 261 256 251 257 254 223 224 227 230 235 240
122 121 116 118 123 131 131 158 184 180 196 211 228 233 264 268 267 272 280 289 296 297 294 290 285 276 268 232 228 235 239 253 257 252 245 242 244 236 225 235 239 243 243
110 115 123 125 131 135 142 175 206 198 224 246 247 256 262 274 284 291 295 291 287 286 283 280 273 267 262 227 222 225 239 244 250 252 251 240 229 213 220 238 246 255 257
103 113 126 130 129 130 146 173 215 241 255 263 278 289 291 287 283 285 284 284 281 280 281 282 276 265 250 215 216 222 242 247 249 247 241 239 230 213 213 233 247 256 263
103 107 121 124 126 138 158 193 241 263 286 305 312 319 316 287 273 271 274 273 273 279 281 280 275 262 241 214 212 215 236 259 264 259 249 227 215 214 225 238 243 251 262
118 123 122 124 127 149 168 203 264 292 305 306 307 304 294 290 293 279 273 270 269 277 274 270 272 258 228 199 205 217 230 251 260 263 262 247 224 231 240 242 246 252 258
116 132 132 129 144 173 187 213 259 284 303 307 309 302 297 292 286 279 280 274 266 268 282 287 292 286 253 207 201 223 241 250 259 277 281 278 255 251 250 244 243 244 243
138 159 162 174 187 193 207 215 249 271 297 303 304 295 283 278 284 280 277 284 294 297 310 323 315 312 317 341 340 264 251 253 253 267 277 267 255 250 253 253 243 234 232
165 183 178 207 228 230 212 216 246 276 303 299 290 286 282 285 283 276 283 285 278 277 278 290 290 294 293 275 273 274 276 284 292 296 276 267 258 250 242 241 238 234 232
199 192 199 227 248 259 258 239 255 286 295 291 290 287 285 285 285 288 291 301 269 256 244 248 256 271 263 257 260 264 268 273 279 276 263 261 257 254 253 253 251 246 244